Theta_e
303 305 307 305 301 300 301 302 303 303 301 301 303 303 304 304 303 303 302 301 301 302 302 301 302 301 302 303 304 304 302 303 304 306 308 309 309 310 311 312 312 313 313 315
303 306 300 301 302 302 302 303 309 303 300 301 303 302 304 302 301 301 301 301 302 302 303 302 302 302 302 302 303 304 305 305 304 304 304 304 303 303 304 304 305 307 309 311
303 302 300 301 302 302 302 304 303 303 303 301 300 308 308 302 300 301 302 301 301 302 303 303 301 301 301 300 300 303 303 302 301 301 301 301 301 303 303 303 303 301 302 304
302 299 300 301 302 301 303 300 301 302 304 313 300 322 310 304 303 302 303 303 303 302 301 301 301 300 299 298 298 299 299 300 300 300 299 299 299 300 300 301 301 301 302 302
304 302 301 302 302 301 301 301 302 302 303 301 304 307 312 302 306 305 304 303 303 303 302 301 300 299 298 297 297 297 297 298 298 298 298 298 298 299 299 299 300 300 300 300
299 299 301 302 300 299 300 301 299 299 302 311 301 305 312 309 306 302 301 302 303 301 300 299 299 298 298 297 297 297 297 297 297 297 297 298 298 298 299 299 300 300 300 300
301 301 300 300 300 301 301 301 324 325 318 321 300 304 310 307 302 301 301 301 301 300 300 300 300 300 298 296 296 296 296 297 297 297 297 297 297 297 297 297 298 299 299 300
308 312 302 301 301 301 301 300 311 315 314 311 296 308 309 302 300 301 301 300 300 300 300 299 300 298 296 295 295 296 297 297 297 296 296 296 296 296 297 297 297 298 298 299
303 302 300 300 299 298 301 301 297 300 290 301 308 303 303 302 300 300 300 300 301 300 299 300 299 296 295 295 296 297 297 296 296 296 296 296 295 295 295 295 295 295 296 297
299 306 298 299 299 299 300 299 304 304 311 314 312 306 309 307 303 300 300 301 300 298 299 299 297 295 295 295 297 297 297 296 295 294 293 293 293 293 294 294 294 294 294 296
298 301 300 299 301 304 300 301 299 300 301 309 310 315 306 309 306 303 301 299 299 299 299 298 296 295 295 297 299 297 296 294 293 292 292 292 291 292 292 292 293 293 294 294
299 300 303 302 296 296 299 300 300 307 307 299 299 307 302 302 302 300 301 300 300 299 298 296 295 294 297 299 298 296 294 293 292 291 291 291 291 291 291 291 291 292 292 293
300 303 309 309 297 296 299 299 299 297 298 303 306 309 299 298 298 299 299 301 299 298 297 295 295 298 299 298 296 294 293 291 291 291 291 290 290 290 291 291 291 292 292 292
303 303 307 313 310 298 299 298 299 300 303 302 302 303 304 306 306 306 305 301 299 297 295 295 295 299 298 296 295 293 292 291 290 290 290 290 290 290 291 291 291 292 292 292
303 303 300 302 301 298 298 299 299 299 301 303 305 304 305 305 305 303 302 300 297 296 294 293 296 298 296 295 293 292 291 290 289 290 290 290 290 290 290 291 291 292 292 292
299 304 294 298 297 298 299 300 299 299 299 300 300 301 301 302 302 300 299 299 297 296 295 294 297 296 295 294 293 291 290 289 289 290 290 290 289 290 290 291 292 292 293 292
300 300 298 307 291 291 300 295 297 299 299 300 300 301 302 302 302 300 298 296 296 295 293 295 296 295 294 293 292 290 289 288 289 289 289 289 289 290 290 291 292 294 294 292
301 300 300 305 294 307 305 295 297 298 298 298 299 300 300 301 300 297 296 296 295 294 293 296 295 294 293 292 291 289 289 288 288 289 289 289 289 289 290 291 292 293 292 292
302 301 302 305 303 302 303 303 296 295 299 297 297 297 297 298 294 296 292 292 294 291 291 294 294 293 293 292 291 290 289 288 288 289 289 289 289 289 290 290 291 293 294 294
299 301 303 294 302 304 304 295 291 292 301 297 292 294 293 293 296 298 293 292 293 290 290 293 294 294 293 292 290 290 289 288 289 288 289 289 289 289 289 290 290 291 293 293
299 299 301 303 302 301 299 294 291 301 304 295 293 293 292 294 295 293 292 292 291 289 290 293 293 293 293 291 289 290 289 289 288 288 289 289 289 289 289 290 290 291 290 291
297 299 299 301 301 301 297 293 297 301 295 295 294 294 295 293 293 293 293 293 292 290 290 293 293 293 293 291 289 289 290 288 288 288 289 289 289 289 290 290 290 290 290 290
299 299 300 300 300 298 293 298 296 294 294 295 295 296 295 295 295 295 294 293 292 291 290 294 294 292 293 290 291 288 289 289 288 288 288 289 289 289 289 290 290 290 290 290
293 295 297 297 298 297 296 294 294 295 295 296 295 295 295 295 294 293 293 292 291 290 291 292 293 292 290 290 292 291 291 290 289 288 289 289 289 289 289 289 289 290 290 289
299 295 297 297 298 299 298 297 297 298 298 297 295 294 294 294 293 292 291 291 291 289 289 291 292 292 292 289 290 293 293 292 290 289 289 289 289 289 289 288 289 288 289 290
297 297 297 298 298 299 299 300 299 298 297 297 295 294 293 292 292 291 290 290 289 288 289 290 291 293 293 290 289 292 292 292 293 290 289 289 290 290 289 289 289 289 289 289
Wind_Speed
2 3 4 3 3 3 1 2 8 5 1 6 7 19 27 22 16 18 15 10 8 6 2 3 2 4 6 8 10 11 12 12 11 11 11 11 14 12 11 13 14 16 16 18
3 4 2 6 3 1 2 5 6 7 2 5 9 24 25 10 3 4 4 4 5 3 3 2 2 5 7 10 14 17 16 13 12 12 11 11 14 16 17 19 20 21 19 19
4 3 4 1 2 3 5 6 3 5 9 5 13 11 6 3 3 3 4 3 3 5 4 3 2 4 9 16 20 18 17 15 16 16 16 19 20 21 21 24 27 31 29 28
1 3 3 3 3 4 4 1 2 6 8 4 6 5 10 2 7 7 7 8 8 8 7 5 1 2 9 19 19 19 19 21 24 24 25 25 26 28 29 30 30 29 27 27
3 4 4 4 1 4 2 2 3 3 1 4 2 3 7 2 2 2 8 11 10 9 6 4 5 8 11 18 17 20 22 23 25 25 25 26 28 28 30 30 31 33 32 31
1 0 2 0 2 2 3 2 2 1 2 3 1 2 6 4 3 2 2 7 10 8 6 6 9 13 16 20 21 22 23 25 26 27 28 30 33 32 31 30 30 29 29 30
2 3 2 2 3 2 2 2 3 3 2 2 1 4 12 6 6 4 4 5 8 6 6 7 9 11 21 22 24 24 25 28 28 30 31 32 34 33 34 33 31 31 28 28
3 4 6 5 3 2 4 2 2 5 4 5 1 7 4 2 2 6 9 10 12 12 6 7 10 19 21 23 25 25 27 29 27 29 31 31 32 30 31 33 31 31 30 31
3 2 1 0 0 2 5 4 3 3 2 3 4 7 14 5 10 12 13 11 9 7 7 10 16 20 22 23 26 27 27 26 26 29 29 29 30 31 31 33 32 32 32 32
1 3 1 2 1 3 3 6 1 1 4 6 5 6 11 5 7 5 3 5 6 7 9 13 14 19 21 23 26 25 26 27 27 29 28 29 29 31 32 31 32 33 32 31
3 2 3 2 8 7 4 4 3 2 3 4 6 6 7 8 4 5 3 5 8 8 13 14 13 19 21 23 25 27 27 27 27 27 29 29 29 30 31 30 32 34 32 31
1 0 3 5 2 3 2 2 7 5 5 3 3 12 4 6 4 3 6 8 11 11 14 13 13 19 22 24 26 27 28 29 28 28 30 30 31 31 31 31 33 34 33 31
6 1 4 3 2 1 4 4 4 1 1 8 6 10 4 3 4 6 9 10 12 14 14 13 13 14 21 26 26 26 28 28 29 30 29 30 31 31 30 31 33 33 33 32
5 5 7 9 6 3 6 5 8 9 5 10 18 26 31 27 22 16 8 8 10 12 13 11 12 15 22 23 25 27 28 29 30 29 29 29 30 31 30 31 32 33 32 31
4 7 6 13 13 12 17 18 18 17 21 14 32 27 38 31 24 24 19 13 10 11 13 12 13 15 19 21 24 27 28 29 29 28 28 28 30 29 30 30 30 32 31 30
6 2 2 5 8 15 19 20 19 23 24 25 32 40 30 31 23 14 5 8 8 11 9 8 12 16 13 21 23 27 27 28 28 26 26 28 27 27 27 28 28 28 27 27
7 5 4 9 2 5 10 14 23 12 13 19 22 36 29 26 17 12 6 10 12 10 6 7 13 12 19 22 25 24 26 27 25 24 25 24 25 25 26 27 21 15 15 19
7 6 4 5 2 8 3 3 7 14 12 18 25 28 29 24 20 13 11 12 10 5 4 6 9 15 21 24 24 25 25 24 21 22 23 23 24 24 24 20 14 6 3 11
12 6 4 4 6 10 18 10 6 7 5 16 15 22 20 15 9 11 2 6 3 4 5 6 15 17 23 22 24 23 22 20 19 20 21 23 23 21 19 19 15 9 7 6
4 7 6 4 5 7 6 2 3 5 9 3 7 8 7 2 3 7 2 4 4 5 8 7 16 20 20 22 24 20 19 19 18 19 21 22 21 18 16 17 17 14 13 13
5 4 13 10 8 9 11 7 5 5 7 2 2 1 0 3 5 7 6 10 5 6 8 8 13 15 21 22 22 17 17 17 20 17 17 17 18 17 17 18 18 19 19 21
10 10 7 8 8 14 11 9 8 4 1 2 2 3 6 9 11 11 12 11 7 5 7 10 12 13 19 20 20 17 15 20 17 14 16 16 16 17 18 20 21 22 21 21
7 12 7 12 9 6 11 3 10 5 4 5 5 11 9 13 14 15 14 9 8 5 10 12 12 11 15 16 21 15 19 19 14 13 15 17 16 17 18 19 20 19 20 18
8 6 9 8 20 18 11 12 12 13 15 17 9 14 15 17 15 15 13 11 8 7 10 15 12 7 9 13 15 18 17 15 13 10 14 16 16 19 19 20 21 21 19 18
10 13 11 9 20 12 15 15 17 17 16 15 13 14 16 14 15 12 12 12 11 9 12 14 12 7 7 10 8 12 17 14 12 10 11 14 15 18 23 26 22 22 21 20
16 16 10 15 12 12 14 13 9 9 12 13 12 12 12 10 14 8 11 10 11 11 13 13 15 11 8 8 9 6 9 11 13 11 11 13 15 16 18 20 27 36 33 32
Wind_Direction
41 249 246 342 349 8 8 273 276 274 334 297 254 275 280 294 283 271 274 259 238 231 204 265 279 339 313 307 311 299 286 274 256 258 256 256 255 254 254 255 252 245 243 246
212 238 80 112 97 360 295 299 279 284 291 311 309 292 282 301 255 264 303 199 187 191 216 204 354 358 359 327 313 295 283 274 262 258 259 269 271 269 265 265 263 255 247 243
250 80 142 176 173 250 243 248 290 287 320 261 308 275 274 200 268 236 212 220 211 223 218 207 300 22 9 343 323 304 282 275 273 268 277 283 279 273 268 265 263 261 257 252
249 115 188 201 238 201 282 53 301 310 337 296 10 287 290 288 278 229 208 209 218 224 228 234 287 298 356 338 314 303 292 283 279 277 275 273 271 269 266 267 262 259 256 255
103 175 195 227 251 181 343 1 311 305 250 320 106 223 275 311 240 224 207 213 220 225 229 256 278 276 297 319 303 301 295 287 284 281 278 274 270 267 269 264 259 255 254 251
184 142 224 272 116 166 117 274 258 135 171 242 98 267 272 229 163 172 195 215 225 211 222 265 279 281 282 306 297 296 295 290 287 284 280 276 273 272 268 263 260 257 254 249
178 195 152 209 188 158 200 280 294 271 236 293 106 266 253 252 211 224 205 197 194 207 253 274 281 290 304 302 302 298 294 290 289 288 285 281 278 275 272 271 266 261 257 251
251 244 192 169 245 163 172 197 246 277 287 314 168 241 245 249 287 244 244 256 263 261 257 278 295 308 303 300 298 299 298 296 298 296 292 286 280 278 275 272 266 265 264 259
193 225 125 314 117 277 143 200 90 106 101 273 238 264 276 272 246 241 253 241 248 251 275 295 315 310 303 301 304 306 305 303 303 299 296 288 280 277 271 272 269 268 265 258
169 267 166 134 172 74 265 137 159 177 277 274 234 261 251 250 223 192 201 213 234 239 285 312 313 304 304 306 310 307 308 307 303 299 294 290 286 284 280 276 271 264 261 258
159 233 114 173 208 188 157 203 195 303 230 267 300 254 215 235 198 197 236 266 259 256 311 312 308 307 311 311 315 315 316 314 306 303 303 295 288 284 277 273 272 268 263 258
82 64 250 229 78 354 295 248 192 230 206 245 298 272 189 247 255 266 279 279 272 286 306 314 310 315 319 320 322 323 320 315 309 307 303 296 290 284 278 272 269 264 259 253
164 103 301 213 146 70 243 219 214 114 275 223 259 260 116 151 227 248 257 265 282 295 309 317 320 323 323 327 326 325 316 311 309 306 302 298 294 288 279 275 270 263 257 249
124 178 202 254 297 150 239 218 227 225 252 279 241 286 271 287 288 298 291 258 288 305 312 316 327 326 326 326 327 320 314 315 311 310 303 299 295 292 286 280 273 262 252 246
150 224 226 251 265 252 258 254 246 234 240 248 272 278 278 279 298 305 308 316 311 303 313 331 331 320 327 328 326 319 317 317 315 311 311 306 302 298 293 286 276 264 250 240
185 219 122 268 257 249 261 258 247 244 248 252 260 264 269 287 293 294 292 291 297 300 300 329 320 326 328 326 324 322 319 318 317 314 312 309 308 309 305 301 291 273 247 231
175 170 161 271 19 307 269 230 225 216 227 236 251 257 281 288 290 302 295 288 296 289 310 327 324 323 324 320 324 319 319 318 319 318 316 317 321 318 321 321 317 329 233 210
177 181 173 278 240 253 273 301 226 224 243 242 251 266 272 275 290 304 273 275 284 280 304 315 315 326 324 319 325 323 325 322 324 323 322 332 332 331 331 344 357 3 163 189
203 177 205 239 234 309 298 268 181 194 278 255 271 275 291 303 297 291 281 217 248 261 261 275 313 324 318 320 326 321 324 327 330 332 337 339 340 336 346 357 13 52 101 158
184 206 201 154 230 257 281 91 136 155 298 190 273 325 360 26 310 337 258 211 285 258 259 290 317 337 318 329 329 325 326 332 340 342 344 352 353 356 6 23 28 51 81 86
175 184 216 219 238 264 254 179 169 256 289 233 199 323 109 235 251 313 289 288 262 256 259 276 311 329 324 341 333 328 334 334 335 350 5 4 14 13 31 44 57 61 59 64
170 176 198 213 222 259 182 130 207 238 190 281 288 254 286 249 271 271 273 279 292 244 245 258 295 317 333 355 348 328 336 337 344 6 21 14 30 33 40 49 51 59 64 62
224 215 213 200 218 245 193 230 225 300 287 279 260 278 287 290 278 287 280 258 273 241 242 247 270 306 327 357 8 337 340 344 359 1 23 26 26 38 48 55 55 53 56 63
237 223 226 207 243 243 239 247 264 263 250 265 257 273 281 276 286 281 279 266 258 225 227 234 248 278 310 335 9 2 4 3 4 16 32 38 39 44 46 51 58 61 56 60
221 167 219 246 255 276 266 250 246 261 261 264 263 252 257 268 270 270 279 275 266 238 218 219 229 233 274 310 348 11 16 24 19 22 48 53 49 56 61 56 59 64 72 80
219 229 222 242 249 238 256 265 257 240 262 266 255 269 250 235 258 267 268 267 255 249 211 215 226 221 248 282 304 10 27 35 52 39 45 58 59 58 63 71 70 69 73 78